Regional Weather Roundup
Issued by NWS

Home | Current Version | Previous Version | Text Only | Print | Product List | Glossary Off
Versions: 1 2 3 4 5 6 7 8 9 10 11 12 13 14 15 16 17 18 19 20 21 22 23 24 25 26 27 28 29 30 31 32 33 34 35 36 37 38 39 40 41 42 43 44 45 46 47 48 49 50

000
ASUS43 KMPX 250801
RWRMN
WEATHER ROUNDUP FOR MINNESOTA
NATIONAL WEATHER SERVICE TWIN CITIES/CHANHASSEN MN
300 AM CDT MON MAY 25 2015


NOTE: "FAIR" INDICATES FEW OR NO CLOUDS BELOW 12,000 FEET WITH NO
SIGNIFICANT WEATHER AND/OR OBSTRUCTIONS TO VISIBILITY. N/A MEANS
CURRENT SKY AND/OR WEATHER CONDITIONS ARE NOT AVAILABLE.

MNZ060>063-068>070-250900-
   Twin Cities Metro

CITY           SKY/WX    TMP DP  RH WIND       PRES   REMARKS
TWIN CITIES    LGT RAIN  58  57  97 E13       29.70F FOG
ST PAUL        CLOUDY    58  57  97 E7        29.71F
CRYSTAL        RAIN      58  57  97 E5        29.69F FOG
BLAINE         LGT RAIN  59  59 100 E8        29.70F
LAKEVILLE      DRIZZLE   57  57 100 E6        29.70F
EDEN PRAIRIE   CLOUDY    59  57  93 E7        29.69F
SOUTH ST PAUL  CLOUDY    58  57  96 E3        29.70F FOG
LAKE ELMO      CLOUDY    57  55  94 E5        29.72F
$$
MNZ001>005-007-008-013>017-022>024-027-028-250900-
   Northwest Minnesota

CITY           SKY/WX    TMP DP  RH WIND       PRES   REMARKS
BEMIDJI        DRIZZLE   55  53  94 N3        29.85S
HALLOCK        MOCLDY    54  50  87 NE5       29.83F
ROSEAU         CLOUDY    55  48  76 CALM      29.83F
WARROAD        CLOUDY    54  50  87 CALM      29.84F
THIEF RVR FALL CLOUDY    59  48  67 CALM      29.84F
CROOKSTON      CLOUDY    59  52  77 S3        29.85S
FOSSTON        RAIN      55  48  76 CALM      29.86S
DETROIT LAKES  LGT RAIN  55  54  94 NE7       29.82F
MOORHEAD       LGT RAIN  57  55  94 N8        29.83F
PARK RAPIDS    LGT RAIN  58  54  86 NE9       29.80F
MAHNOMEN       RAIN      59  53  81 NE6       29.84S
$$
MNZ006-009>011-018-025>026-250900-
   North Central Minnesota

CITY           SKY/WX    TMP DP  RH WIND       PRES   REMARKS
BAUDETTE       CLOUDY    53  51  93 CALM      29.83F
FLAG ISLAND    CLOUDY    59  54  82 N3        29.83F HAZE
INTL FALLS     CLOUDY    51  49  92 CALM      29.83F
WASKISH        CLOUDY    55  54  94 CALM      29.84F
BIG FORK       CLOUDY    55  52  88 CALM      29.85F
LONGVILLE      RAIN      57  55  94 NE6       29.81F
GRAND RAPIDS   CLOUDY    55  52  88 E5        29.84F
CRANE LAKE     CLOUDY    52  48  87 CALM      29.87S
ORR            CLOUDY    57  48  72 CALM      29.84F
COOK           CLOUDY    55  52  88 CALM      29.86F
WALKER         LGT RAIN  56  55  95 E3        29.83F
$$
MNZ012-019>021-037-250900-
   Northeast Minnesota

CITY           SKY/WX    TMP DP  RH WIND       PRES   REMARKS
DULUTH         LGT RAIN  58  56  93 NE12      29.82F
ELY            CLOUDY    55  48  76 CALM      29.87F
HIBBING        LGT RAIN  56  53  90 E3        29.85F
EVELETH        LGT RAIN  54  54 100 CALM      29.87F
DULUTH HARBOR  DRIZZLE   46  45  93 E10       29.82F
TWO HARBORS    LGT RAIN  61  55  82 NE6       29.83F
GRAND MARAIS     N/A     46  40  79 CALM      29.88F
G MARAIS ARPRT CLOUDY    52  43  71 CALM      29.90F
$$
MNZ029>031-032-039>041-046>048-054>057-064-250900-
   West Central Minnesota

CITY           SKY/WX    TMP DP  RH WIND       PRES   REMARKS
FERGUS FALLS   DRIZZLE   57  57 100 NE9G18    29.78F
WHEATON        DRIZZLE   55  54  94 N5        29.78F
MORRIS         LGT RAIN  57  57 100 N7        29.73F
ALEXANDRIA     LGT RAIN  57  57 100 NE9       29.75F FOG
ELBOW LAKE     LGT RAIN  56  56  97 NE6       29.75F
WADENA         RAIN      55  55 100 NE10G16   29.77F
GLENWOOD       CLOUDY    57  55  94 NE10      29.74F
APPLETON       DRIZZLE   59  55  88 N6        29.72F
BENSON         DRIZZLE   57  55  94 CALM      29.73F
ORTONVILLE     RAIN      57  55  94 N7        29.74F
MADISON        CLOUDY    57  55  94 VRB5      29.73F
WILLMAR        LGT RAIN  57  57 100 NE6       29.72F
$$
MNZ033>034-036-042>043-049>051-058-059-250900-
   Central Minnesota

CITY           SKY/WX    TMP DP  RH WIND       PRES   REMARKS
ST CLOUD       LGT RAIN  57  56  96 NE6       29.71F
SAUK CENTRE    RAIN      56  56  97 NE8       29.73F
PAYNESVILLE    DRIZZLE   55  55 100 N6        29.72F
AITKIN         RAIN      57  54  88 NE8       29.77F
PINE RIVER     LGT RAIN  57  55  94 NE7       29.83F
BRAINERD       LGT RAIN  57  56  96 NE9       29.77F FOG
STAPLES        RAIN      55  55 100 NE5       29.76F
LONG PRAIRIE   LGT RAIN  55  54  94 NE8       29.75F
LITTLE FALLS   LGT RAIN  55  54  94 NE5       29.74F
LITCHFIELD     CLOUDY    57  57 100 E5        29.71F
BUFFALO        RAIN      57  55  92 NE8       29.71F
MAPLE LAKE     DRIZZLE   58  57  97 E8        29.71F
$$
MNZ037-044-045-052-053-250900-
   East Central Minnesota

CITY           SKY/WX    TMP DP  RH WIND       PRES   REMARKS
PRINCETON      LGT RAIN  59  57  94 NE7       29.73F
MORA           RAIN      54  54 100 CALM      29.76F
CAMBRIDGE      RAIN      59  52  77 NE5       29.71F
RUSH CITY      DRIZZLE   57  55  95 NE7       29.74F
MOOSE LAKE     LGT RAIN  55  55 100 NE7       29.77F
HINCKLEY       DRIZZLE   57  57 100 NE6       29.76F
CLOQUET        LGT RAIN  57  55  94 E10       29.81F
MCGREGOR       CLOUDY    57  55  94 NE5       29.80F
$$
MNZ071>073-080-081-089-090-097-098-250900-
   Southwest Minnesota

CITY           SKY/WX    TMP DP  RH WIND       PRES   REMARKS
MONTEVIDEO     DRIZZLE   57  57 100 NE6       29.72F
GRANITE FALLS  RAIN      57  57  98 N3        29.72F
CANBY          LGT RAIN  57  56  97 N5        29.74F
MARSHALL       CLOUDY    57  54  88 N6        29.71F
REDWOOD FALLS  CLOUDY    58  57  97 N3        29.69F FOG
OLIVIA         LGT RAIN  54  54 100 NE3       29.69F
WINDOM         FOG       59  57  94 CALM      29.71F VSB 1/4
WORTHINGTON    CLOUDY    57  55  94 W5        29.72S VSB 1/2
JACKSON        FOG       59  59 100 SW5       29.71F VSB 1
TRACY          FOG       58  58  98 NW3       29.72S VSB 1
SLAYTON        CLOUDY    56  56 100 CALM      29.73S
$$
MNZ065>067-074>077-082>085-091>093-250900-
   South Central Minnesota

CITY           SKY/WX    TMP DP  RH WIND       PRES   REMARKS
MANKATO        CLOUDY    63  61  94 S6        29.69S
NEW ULM        FOG       57  57 100 CALM      29.69F VSB 3/4
ST JAMES       FOG       61  61 100 CALM      29.70F VSB 1/4
FAIRMONT       CLOUDY    61  55  82 SW8       29.70F
GLENCOE        CLOUDY    59  59 100 E6        29.69S
FARIBAULT      DRIZZLE   61  59  94 SE6       29.70F
OWATONNA       CLOUDY    61  59  94 SE6       29.70F FOG
WASECA         CLOUDY    59  57  94 S6        29.71F FOG
ALBERT LEA     CLOUDY    63  63 100 S3        29.70F FOG
$$
MNZ078>079-086>088-094>096-250900-
   Southeast Minnesota

CITY           SKY/WX    TMP DP  RH WIND       PRES   REMARKS
ROCHESTER      LGT RAIN  59  58  96 SE7       29.72F FOG
RED WING       CLOUDY    57  57 100 E6        29.71F
STANTON        LGT RAIN  60  58  91 SE8       29.69F
DODGE CENTER   CLOUDY    61  59  94 SE8       29.71F FOG
WINONA         LGT RAIN  59  59 100 SE5       29.72F
AUSTIN         DRIZZLE   63  61  94 S6        29.70F
PRESTON        FOG       58  57  97 SE6       29.73F VSB 1
$$
ABBREVIATIONS USED IN REMARKS
   TC - TEMPERATURES IN CELSIUS
  WCI - WIND CHILL INDEX
   HX - HEAT INDEX
  VSB - VISIBILITY
$$



USA.gov is the U.S. government's official web portal to all federal, state and local government web resources and services.